1487930400.19,60793,8.94,71732.8,-4.39,-31.17,-30.51,0,*56
1487930401.45,60794,8.94,71672.3,-4.39,-31.95,-31.45,0,*5F
1487930402.7,60795,8.94,71578.5,-4.39,-32.23,-31.73,0,*55
1487930403.94,60796,8.94,71580.5,-4.39,-32.45,-32.13,0,*53
1487930405.19,60797,8.94,71606.0,-4.39,-32.13,-31.91,0,*58
1487930406.41,60798,8.94,71600.8,-4.41,-32.23,-31.73,0,*57
1487930407.67,60799,8.94,71694.3,-4.41,-32.07,-31.73,0,*50
1487930408.95,60800,8.94,71704.0,-4.39,-31.73,-31.39,0,*5E
1487930410.23,60801,8.94,71718.5,-4.39,-31.95,-31.61,0,*5A
1487930411.48,60802,8.94,71660.3,-4.39,-32.13,-31.95,0,*5F
1487930412.69,60803,8.94,71718.0,-4.41,-31.45,-31.05,0,*58
1487930413.94,60804,8.94,71742.3,-4.39,-31.39,-31.01,0,*5F
1487930415.19,60805,8.94,71714.5,-4.39,-31.17,-30.89,0,*53
1487930416.44,60806,8.94,71668.8,-4.39,-32.13,-31.91,0,*5F
1487930417.69,60807,8.94,71678.3,-4.39,-32.51,-32.45,0,*52
1487930418.92,60808,8.94,71660.5,-4.41,-32.23,-32.07,0,*51
1487930420.13,60809,8.94,71690.8,-4.41,-32.51,-32.35,0,*54
1487930421.32,60810,8.94,71732.0,-4.41,-32.35,-32.13,0,*5A
1487930422.56,60811,8.94,71714.5,-4.41,-31.61,-31.45,0,*59
1487930423.78,60812,8.94,71710.0,-4.39,-32.23,-32.13,0,*50
1487930425.06,60813,8.94,71706.5,-4.39,-32.85,-32.79,0,*51
1487930426.3,60814,8.94,71688.5,-4.41,-32.79,-32.69,0,*5B
1487930427.54,60815,8.94,71702.8,-4.41,-32.79,-32.69,0,*5A
1487930428.77,60816,8.94,71754.3,-4.43,-32.39,-32.39,0,*5A
1487930430.02,60817,8.94,71714.0,-4.41,-32.45,-32.45,0,*59
1487930431.29,60818,8.94,71718.8,-4.43,-32.29,-32.29,0,*54
1487930432.55,60819,8.94,71728.8,-4.41,-31.61,-31.57,0,*52
1487930433.83,60820,8.94,71702.0,-4.43,-31.95,-31.85,0,*5E
1487930435.05,60821,8.94,71696.5,-4.43,-33.03,-33.21,0,*5E
1487930436.31,60822,8.94,71718.0,-4.43,-31.61,-31.67,0,*5B
1487930437.56,60823,8.94,71706.0,-4.43,-31.61,-31.67,0,*5A
1487930438.79,60824,8.94,71722.8,-4.43,-31.29,-31.45,0,*51
1487930440.02,60825,8.94,71684.5,-4.41,-32.23,-32.45,0,*58
1487930441.25,60826,8.94,71640.5,-4.41,-32.51,-32.79,0,*51
1487930442.48,60827,8.94,71680.3,-4.41,-32.35,-32.45,0,*5D
1487930443.76,60828,8.94,71660.5,-4.39,-32.07,-32.07,0,*5A
1487930444.98,60829,8.94,71680.8,-4.41,-32.29,-32.35,0,*59
1487930446.21,60830,8.94,71694.0,-4.43,-32.91,-33.21,0,*54
1487930447.44,60831,8.94,71658.0,-4.43,-31.79,-32.01,0,*53
1487930448.67,60832,8.94,71696.3,-4.41,-32.07,-32.23,0,*58
1487930449.92,60833,8.94,71644.8,-4.43,-32.29,-32.35,0,*50
1487930451.15,60834,8.94,71650.0,-4.43,-32.39,-32.69,0,*5F
1487930452.4,60835,8.94,71702.0,-4.45,-32.63,-33.09,0,*50
1487930453.66,60836,8.94,71690.3,-4.45,-32.85,-33.73,0,*56
1487930454.92,60837,8.94,71640.5,-4.45,-33.49,-34.01,0,*54
1487930456.17,60838,8.94,71652.0,-4.49,-33.09,-33.61,0,*52
1487930457.42,60839,8.94,71688.5,-4.47,-33.31,-33.83,0,*5A
1487930458.67,60840,8.94,71596.0,-4.47,-32.07,-32.57,0,*58
1487930459.92,60841,8.94,71630.0,-4.49,-32.79,-33.31,0,*5F
1487930461.12,60842,8.94,71680.3,-4.49,-33.95,-34.59,0,*56
1487930462.38,60843,8.94,71678.0,-4.51,-33.49,-34.07,0,*54
1487930463.65,60844,8.94,71638.0,-4.51,-32.29,-32.63,0,*50
1487930464.9,60845,8.94,71644.3,-4.51,-31.01,-31.57,0,*5C
1487930466.15,60846,8.94,71634.0,-4.51,-31.01,-31.39,0,*57
1487930467.38,60847,8.94,71682.5,-4.49,-30.83,-31.23,0,*5F
1487930468.66,60848,8.94,71650.8,-4.47,-31.11,-31.51,0,*51
1487930469.89,60849,8.94,71606.5,-4.47,-30.83,-31.17,0,*58
1487930471.15,60850,8.94,71608.5,-4.45,-31.11,-31.51,0,*5A
1487930472.39,60851,8.94,71642.5,-4.45,-30.95,-31.29,0,*59
1487930473.61,60852,9.0,71608.3,-4.43,-31.33,-31.79,0,*54
1487930474.87,60853,8.94,71660.8,-4.43,-30.95,-31.45,0,*57
1487930476.1,60854,8.94,71644.3,-4.41,-31.05,-31.61,0,*5C
1487930477.35,60855,8.94,71652.8,-4.41,-31.91,-32.29,0,*5F
1487930478.61,60856,8.94,71642.8,-4.39,-30.89,-31.45,0,*52
1487930479.86,60857,8.94,71674.3,-4.39,-31.61,-32.13,0,*54
1487930481.1,60858,8.94,71612.0,-4.41,-32.07,-32.51,0,*51
1487930482.37,60859,8.94,71664.8,-4.39,-31.91,-32.45,0,*56
1487930483.63,60860,8.94,71602.3,-4.39,-31.45,-31.95,0,*5B
1487930484.85,60861,9.0,71610.0,-4.41,-32.35,-32.97,0,*50
1487930486.11,60862,8.94,71618.5,-4.41,-31.57,-32.07,0,*5D
1487930487.39,60863,8.94,71610.5,-4.39,-32.29,-32.85,0,*53
1487930488.64,60864,8.94,71636.5,-4.39,-32.23,-32.85,0,*5E
1487930489.89,60865,8.94,71592.0,-4.41,-32.29,-32.79,0,*59
1487930491.09,60866,8.94,71612.0,-4.41,-32.35,-33.15,0,*5C
1487930492.28,60867,8.94,71600.8,-4.41,-32.35,-33.03,0,*5A
1487930493.52,60868,8.94,71652.5,-4.41,-32.51,-33.31,0,*56
1487930494.76,60869,8.94,71640.0,-4.43,-32.35,-33.09,0,*5C
1487930495.98,60870,8.94,71644.5,-4.43,-32.35,-33.03,0,*5E
1487930497.21,60871,8.94,71664.3,-4.43,-32.39,-33.21,0,*53
1487930498.48,60872,8.94,71686.8,-4.43,-32.69,-33.27,0,*53
1487930499.73,60873,8.94,71698.8,-4.43,-32.51,-33.09,0,*55
1487930500.96,60874,8.94,71688.3,-4.45,-32.45,-33.15,0,*5C
1487930502.19,60875,8.94,71676.5,-4.43,-32.39,-33.03,0,*57
1487930503.41,60876,8.94,71630.3,-4.45,-33.31,-33.83,0,*53
1487930504.66,60877,8.94,71628.5,-4.45,-32.45,-32.97,0,*54
1487930505.86,60878,8.94,71644.3,-4.45,-32.35,-32.91,0,*5A
1487930507.12,60879,8.94,71670.8,-4.45,-31.51,-32.19,0,*5A
1487930508.38,60880,8.94,71656.3,-4.45,-32.07,-32.63,0,*51
1487930509.63,60881,8.94,71608.8,-4.43,-32.13,-32.75,0,*54
1487930510.89,60882,8.94,71682.8,-4.45,-32.19,-32.79,0,*57
1487930512.15,60883,9.0,71684.8,-4.45,-32.79,-33.49,0,*52
1487930513.41,60884,8.94,71676.5,-4.45,-33.43,-34.01,0,*56
1487930514.68,60885,8.94,71698.3,-4.47,-33.31,-33.89,0,*57
1487930515.88,60886,8.94,71660.0,-4.49,-33.55,-34.07,0,*59
1487930517.13,60887,8.94,71716.0,-4.47,-33.49,-34.07,0,*5B
1487930518.33,60888,8.94,71722.5,-4.49,-32.51,-33.03,0,*51
1487930519.62,60889,9.0,71732.5,-4.47,-32.79,-33.43,0,*50
1487930520.87,60890,8.94,71736.0,-4.47,-32.75,-33.15,0,*57
1487930522.1,60891,9.0,71770.0,-4.49,-32.91,-33.43,0,*51
1487930523.35,60892,8.94,71760.8,-4.49,-32.85,-33.31,0,*52
1487930524.58,60893,8.94,71756.0,-4.49,-32.51,-32.97,0,*57
1487930525.83,60894,8.94,71760.3,-4.49,-32.45,-32.85,0,*56
1487930527.08,60895,8.94,71768.5,-4.47,-32.35,-32.79,0,*5D
1487930528.35,60896,8.94,71754.3,-4.51,-32.45,-32.97,0,*5E
1487930529.58,60897,8.94,71698.3,-4.49,-32.79,-33.15,0,*52
1487930530.81,60898,8.94,71722.5,-4.49,-32.97,-33.37,0,*5D
1487930532.01,60899,8.94,71692.8,-4.49,-33.21,-33.67,0,*55
1487930533.22,60900,8.94,71728.5,-4.49,-32.69,-33.15,0,*5C
1487930534.45,60901,8.94,71708.3,-4.55,-34.47,-34.89,0,*58
1487930535.73,60902,8.94,71750.0,-4.55,-33.73,-34.19,0,*52
1487930536.93,60903,9.0,71732.5,-4.57,-33.03,-33.37,0,*5D
1487930538.16,60904,9.0,71730.3,-4.57,-33.37,-33.73,0,*5D
1487930539.42,60905,8.94,71734.0,-4.59,-32.91,-33.43,0,*5C
1487930540.62,60906,8.94,71722.3,-4.57,-32.91,-33.37,0,*52
1487930541.86,60907,9.0,71734.3,-4.57,-33.09,-33.61,0,*50
1487930543.14,60908,8.94,71748.5,-4.59,-33.09,-33.61,0,*51
1487930544.37,60909,8.94,71714.8,-4.57,-32.91,-33.43,0,*5E
1487930545.62,60910,8.94,71694.3,-4.57,-33.09,-33.43,0,*56
1487930546.9,60911,8.94,71702.0,-4.59,-33.49,-33.89,0,*5B
1487930548.13,60912,8.94,71722.8,-4.61,-33.43,-33.83,0,*53
1487930549.38,60913,8.94,71722.8,-4.61,-33.31,-33.77,0,*5C
1487930550.64,60914,8.94,71718.0,-4.63,-33.49,-33.67,0,*57
1487930551.88,60915,8.94,71724.8,-4.61,-32.57,-32.75,0,*58
1487930553.11,60916,9.94,71744.8,-4.61,-32.57,-33.09,0,*51
1487930554.36,60917,8.94,71702.0,-4.61,-33.43,-33.89,0,*5C
1487930555.61,60918,9.0,71706.0,-4.63,-34.77,-35.23,0,*57
1487930556.81,60919,9.0,71720.8,-4.65,-33.95,-34.41,0,*5E
1487930558.04,60920,9.0,71716.8,-4.65,-33.89,-34.47,0,*5F
1487930559.33,60921,9.0,71686.8,-4.67,-34.01,-34.65,0,*5B
1487930560.56,60922,9.0,71670.3,-4.67,-34.13,-34.71,0,*5E
1487930561.8,60923,8.94,71694.3,-4.69,-34.47,-35.13,0,*55
1487930563.03,60924,8.94,71676.0,-4.71,-34.53,-35.17,0,*5A
1487930564.23,60925,8.94,71670.5,-4.71,-34.25,-34.89,0,*5C
1487930565.46,60926,8.94,71664.5,-4.77,-33.83,-34.47,0,*50
1487930566.71,60927,8.94,71672.3,-4.77,-34.13,-35.01,0,*5C
1487930567.94,60928,8.94,71694.8,-4.77,-33.83,-34.59,0,*51
1487930569.19,60929,9.0,71674.3,-4.79,-33.77,-34.53,0,*5F
1487930570.43,60930,8.94,71664.5,-4.77,-33.83,-34.47,0,*57
1487930571.69,60931,8.94,71660.3,-4.81,-33.89,-34.47,0,*55
1487930572.96,60932,8.94,71668.5,-4.81,-33.89,-34.35,0,*53
1487930574.22,60933,8.94,71666.5,-4.81,-33.73,-34.47,0,*52
1487930575.45,60934,8.94,71682.8,-4.81,-33.95,-34.71,0,*58
1487930576.74,60935,8.94,71698.5,-4.81,-33.73,-34.31,0,*55
1487930577.94,60936,8.94,71704.0,-4.83,-33.95,-34.59,0,*52
1487930579.17,60937,8.94,71700.5,-4.83,-34.13,-35.07,0,*50
1487930580.39,60938,8.94,71686.0,-4.83,-34.13,-34.77,0,*59
1487930581.62,60939,9.0,71696.0,-4.85,-34.13,-34.89,0,*5F
1487930582.88,60940,9.0,71706.0,-4.87,-33.89,-34.65,0,*55
1487930584.09,60941,9.0,71704.5,-4.87,-34.07,-35.01,0,*56
1487930585.29,60942,8.94,71702.5,-4.87,-33.67,-34.41,0,*51
1487930586.5,60943,8.94,71702.5,-4.87,-33.03,-33.83,0,*5B
1487930587.75,60944,9.0,71694.0,-4.87,-33.31,-34.19,0,*59
1487930589.01,60945,8.94,71682.8,-4.87,-33.89,-34.65,0,*50
1487930590.24,60946,8.94,71666.0,-4.89,-34.25,-35.13,0,*5C
1487930591.51,60947,8.94,71634.8,-4.89,-34.19,-35.29,0,*5B
1487930592.77,60948,9.0,71652.8,-4.91,-34.65,-35.41,0,*58
1487930594.03,60949,8.94,71650.5,-4.91,-34.31,-35.07,0,*5A
1487930595.24,60950,8.94,71682.5,-4.91,-34.07,-34.71,0,*57
1487930596.48,60951,9.0,71664.8,-4.93,-33.95,-34.71,0,*58
1487930597.73,60952,8.94,71644.0,-4.93,-34.25,-35.07,0,*57
1487930598.97,60953,9.0,71638.0,-4.93,-34.07,-34.71,0,*56
1487930600.23,60954,9.0,71626.0,-4.95,-33.77,-34.53,0,*57
1487930601.48,60955,8.94,71628.0,-4.95,-34.35,-35.23,0,*51
1487930602.77,60956,9.0,71672.8,-4.97,-34.31,-34.95,0,*58
1487930604.02,60957,8.94,71682.3,-4.97,-32.91,-33.61,0,*59
1487930605.27,60958,9.0,71712.3,-4.97,-32.91,-33.61,0,*56
1487930606.53,60959,8.94,71732.3,-4.97,-32.91,-33.49,0,*5D
1487930607.79,60960,9.0,71734.3,-4.97,-33.03,-33.77,0,*50
1487930609.04,60961,9.0,71744.5,-4.97,-33.03,-33.61,0,*56
1487930610.25,60962,8.94,71740.8,-4.95,-32.57,-33.15,0,*54
1487930611.51,60963,8.94,71730.5,-4.95,-32.19,-32.75,0,*58
1487930612.71,60964,9.0,71688.8,-4.95,-32.39,-33.15,0,*5A
1487930613.94,60965,9.0,71698.8,-4.95,-32.91,-33.49,0,*50
1487930615.2,60966,8.94,71708.0,-4.93,-31.95,-32.51,0,*5A
1487930616.48,60967,8.94,71716.0,-4.93,-31.39,-31.73,0,*5E
1487930617.72,60968,8.94,71736.8,-4.91,-31.45,-32.19,0,*57
1487930618.97,60969,8.94,71696.0,-4.91,-32.29,-32.97,0,*59
1487930620.21,60970,9.0,71712.0,-4.89,-32.57,-33.21,0,*5D
1487930621.5,60971,9.0,71698.3,-4.89,-32.75,-33.31,0,*5D
1487930622.76,60972,8.94,71688.5,-4.89,-32.79,-33.37,0,*54
1487930624.0,60973,9.0,71704.3,-4.89,-32.57,-33.15,0,*59
1487930625.25,60974,8.94,71682.0,-4.89,-31.91,-32.57,0,*50
1487930626.54,60975,8.94,71702.0,-4.89,-32.07,-32.97,0,*51
1487930627.82,60976,8.94,71688.0,-4.89,-32.79,-33.49,0,*59
1487930629.05,60977,9.0,71712.5,-4.87,-32.45,-33.15,0,*50
1487930630.31,60978,8.94,71706.5,-4.89,-32.39,-32.97,0,*51
1487930631.59,60979,8.94,71686.8,-4.89,-32.29,-32.79,0,*51
1487930632.85,60980,9.0,71696.8,-4.89,-32.23,-32.75,0,*51
1487930634.08,60981,8.94,71710.0,-4.85,-31.67,-32.23,0,*5C
1487930635.31,60982,8.94,71702.0,-4.87,-31.85,-32.13,0,*52
1487930636.54,60983,9.0,71718.5,-4.83,-32.07,-32.57,0,*5E
1487930637.78,60984,8.94,71704.8,-4.85,-32.23,-32.69,0,*54
1487930639.07,60985,9.0,71728.8,-4.85,-32.85,-33.31,0,*55
1487930640.3,60986,8.94,71698.0,-4.83,-32.19,-32.69,0,*59
1487930641.56,60987,8.94,71704.3,-4.85,-32.57,-32.97,0,*55
1487930642.8,60988,8.94,71704.3,-4.85,-32.69,-33.15,0,*5C
1487930644.0,60989,9.0,71704.5,-4.83,-32.51,-33.15,0,*50
1487930645.3,60990,8.94,71732.0,-4.85,-32.75,-33.27,0,*59
1487930646.54,60991,8.94,71732.5,-4.83,-32.69,-33.27,0,*53
1487930647.79,60992,8.94,71718.5,-4.85,-32.91,-33.49,0,*59
1487930649.06,60993,8.94,71726.8,-4.85,-32.69,-33.31,0,*50
1487930650.3,60994,9.0,71748.0,-4.85,-32.69,-33.15,0,*51
1487930651.54,60995,9.0,71744.8,-4.85,-32.01,-32.51,0,*5F
1487930652.81,60996,8.94,71746.8,-4.83,-32.19,-32.75,0,*55
1487930654.07,60997,9.0,71736.0,-4.85,-32.69,-33.27,0,*53
1487930655.33,60998,9.0,71688.3,-4.85,-33.31,-33.83,0,*5E
1487930656.56,60999,9.0,71738.5,-4.85,-33.67,-34.41,0,*55
1487930657.79,61000,9.0,71700.0,-4.85,-33.15,-33.95,0,*56
1487930659.04,61001,8.94,71698.5,-4.87,-33.31,-33.73,0,*5B
1487930660.27,61002,8.94,71700.3,-4.87,-33.15,-33.73,0,*5E
1487930661.5,61003,9.0,71718.5,-4.87,-32.91,-33.31,0,*54
1487930662.73,61004,9.0,71716.3,-4.87,-32.97,-33.37,0,*53
1487930664.0,61005,8.94,71704.5,-4.89,-32.39,-32.75,0,*5F
1487930665.23,61006,8.94,71720.3,-4.87,-31.85,-32.57,0,*56
1487930666.46,61007,9.0,71728.0,-4.87,-32.79,-33.21,0,*57
1487930667.67,61008,8.94,71726.5,-4.87,-32.39,-32.91,0,*56
1487930668.9,61009,9.0,71714.5,-4.87,-32.23,-32.79,0,*5A
1487930670.13,61010,9.0,71738.0,-4.87,-31.73,-32.57,0,*58
1487930671.36,61011,9.0,71712.0,-4.85,-33.95,-34.59,0,*59
1487930672.61,61012,8.94,71746.3,-4.89,-34.59,-35.13,0,*5E
1487930673.87,61013,9.0,71722.3,-4.89,-34.47,-34.95,0,*5F
1487930675.13,61014,9.0,71714.0,-4.89,-33.21,-33.73,0,*50
1487930676.39,61015,9.0,71746.0,-4.93,-32.97,-33.55,0,*52
1487930677.64,61016,9.0,71716.3,-4.91,-33.89,-34.31,0,*58
1487930678.9,61017,9.0,71726.3,-4.93,-33.89,-34.47,0,*5A
1487930680.16,61018,9.0,71710.0,-4.93,-34.07,-34.65,0,*54
1487930681.43,61019,9.0,71694.0,-4.93,-34.13,-34.65,0,*50
1487930682.66,61020,8.94,71710.3,-4.95,-33.83,-34.31,0,*53
1487930683.91,61021,8.94,71686.0,-4.97,-33.95,-34.35,0,*53
1487930685.13,61022,9.0,71696.0,-4.95,-33.67,-34.19,0,*51
1487930686.39,61023,9.0,71664.3,-4.97,-33.27,-33.95,0,*55
1487930687.59,61024,9.0,71668.0,-5.01,-33.83,-34.41,0,*5C
1487930688.81,61025,9.0,71614.5,-5.01,-34.01,-34.41,0,*50
1487930690.1,61026,9.0,71638.5,-5.03,-34.19,-34.65,0,*5E
1487930691.33,61027,9.0,71614.8,-5.03,-34.25,-34.77,0,*53
1487930692.57,61028,9.0,71620.5,-5.05,-34.13,-34.53,0,*59
1487930693.8,61029,9.0,71588.8,-5.07,-34.13,-34.47,0,*5F
1487930695.04,61030,9.0,71670.5,-5.05,-34.13,-34.53,0,*50
1487930696.29,61031,9.0,71648.5,-5.07,-33.95,-34.31,0,*5E
1487930697.54,61032,8.94,71558.0,-5.07,-34.25,-34.31,0,*51
1487930698.77,61033,9.0,71568.5,-5.09,-34.19,-34.13,0,*51
1487930700.02,61034,9.0,71626.3,-5.11,-34.19,-33.83,0,*51
1487930701.28,61035,9.0,71618.8,-5.11,-34.19,-33.67,0,*5A
1487930702.54,61036,8.94,71580.0,-5.11,-34.19,-33.37,0,*5C
1487930703.8,61037,9.0,71602.0,-5.17,-33.61,-32.79,0,*58
1487930705.03,61038,9.0,71538.0,-5.13,-33.15,-32.19,0,*56
1487930706.26,61039,9.0,71656.3,-5.13,-32.39,-30.95,0,*5E
1487930707.49,61040,9.0,71652.8,-5.13,-32.01,-30.67,0,*56
1487930708.72,61041,9.0,71644.3,-5.13,-31.51,-30.33,0,*50
1487930709.96,61042,9.0,71638.8,-5.13,-32.19,-31.17,0,*5B
1487930711.19,61043,9.0,71664.3,-5.09,-32.13,-31.51,0,*59
1487930712.44,61044,8.94,71644.0,-5.11,-32.45,-32.23,0,*52
1487930713.68,61045,9.0,71634.5,-5.09,-31.79,-31.85,0,*59
1487930714.91,61046,9.0,71648.0,-5.09,-32.35,-32.75,0,*5D
1487930716.17,61047,8.94,71682.3,-5.11,-32.39,-33.09,0,*53
1487930717.46,61048,9.0,71702.8,-5.11,-32.07,-32.75,0,*5B
1487930718.74,61049,9.0,71712.3,-5.11,-32.19,-32.63,0,*52
1487930719.95,61050,8.94,71722.3,-5.09,-31.79,-32.39,0,*59
1487930721.2,61051,9.0,71712.5,-5.11,-31.33,-31.73,0,*52
1487930722.4,61052,9.0,71736.5,-5.09,-31.33,-31.67,0,*5D
1487930723.6,61053,9.0,71726.8,-5.09,-31.67,-32.13,0,*5D
1487930724.84,61054,9.0,71724.5,-5.09,-31.79,-32.19,0,*5F
1487930726.11,61055,9.0,71710.5,-5.07,-31.11,-31.45,0,*54
1487930727.39,61056,9.0,71672.0,-5.07,-32.07,-32.45,0,*50
1487930728.62,61057,9.0,71692.8,-5.07,-33.15,-33.55,0,*53
1487930729.85,61058,8.94,71658.0,-5.07,-33.37,-33.95,0,*50
1487930731.05,61059,9.0,71740.5,-5.09,-33.95,-34.41,0,*59
1487930732.3,61060,8.94,71736.0,-5.09,-33.43,-33.77,0,*5A
1487930733.53,61061,9.0,71726.3,-5.11,-33.67,-34.07,0,*54
1487930734.76,61062,8.94,71694.3,-5.09,-33.31,-33.83,0,*56
1487930735.99,61063,9.0,71698.5,-5.11,-33.67,-34.07,0,*56
1487930737.22,61064,9.0,71698.0,-5.11,-33.83,-34.41,0,*59
1487930738.47,61065,8.94,71682.3,-5.13,-33.89,-34.35,0,*53
1487930739.72,61066,9.0,71644.5,-5.17,-33.77,-34.31,0,*51
1487930740.92,61067,8.94,71676.0,-5.17,-34.25,-34.71,0,*54
1487930742.19,61068,8.94,71684.8,-5.19,-33.37,-33.77,0,*50
1487930743.45,61069,9.0,71682.0,-5.19,-33.03,-33.43,0,*51
1487930744.73,61070,8.94,71660.8,-5.19,-33.27,-33.77,0,*58
1487930745.98,61071,9.0,71642.0,-5.19,-33.03,-33.61,0,*58
1487930747.24,61072,9.0,71600.5,-5.19,-33.21,-33.77,0,*5C
1487930748.52,61073,9.0,71646.8,-5.19,-33.61,-34.19,0,*56
1487930749.78,61074,9.0,71600.5,-5.19,-33.83,-34.53,0,*53
1487930750.99,61075,9.0,71626.8,-5.21,-33.03,-33.37,0,*54
1487930752.23,61076,9.0,71676.5,-5.21,-32.29,-32.51,0,*5F
1487930753.44,61077,9.0,71664.5,-5.21,-31.45,-31.79,0,*5E
1487930754.72,61078,9.0,71582.5,-5.19,-30.39,-30.61,0,*58
1487930755.96,61079,9.0,71598.8,-5.17,-30.55,-30.83,0,*51
1487930757.18,61080,9.0,71646.3,-5.13,-30.67,-30.67,0,*58
1487930758.41,61081,9.0,71618.0,-5.13,-29.45,-29.73,0,*5C
1487930759.64,61082,9.0,71662.5,-5.09,-29.23,-29.39,0,*5A
1487930760.9,61083,9.0,71686.8,-5.07,-30.01,-30.33,0,*5F
1487930762.16,61084,9.0,71670.8,-5.05,-29.01,-29.17,0,*5C
1487930763.4,61085,8.94,71670.3,-5.01,-29.39,-29.57,0,*56
1487930764.63,61086,9.0,71672.8,-5.01,-29.79,-30.01,0,*5A
1487930765.83,61087,8.94,71660.8,-5.01,-30.33,-30.45,0,*5D
1487930767.07,61088,9.0,71642.5,-4.95,-29.39,-29.57,0,*57
1487930768.34,61089,9.0,71676.8,-4.93,-29.67,-29.89,0,*58
1487930769.57,61090,9.0,71676.0,-4.91,-30.05,-30.33,0,*57
1487930770.8,61091,9.0,71652.3,-4.91,-30.01,-30.33,0,*52
1487930772.08,61092,8.94,71680.5,-4.89,-30.67,-30.77,0,*58
1487930773.36,61093,9.0,71676.3,-4.89,-30.51,-30.89,0,*5D
1487930774.6,61094,8.94,71672.3,-4.89,-30.83,-31.05,0,*50
1487930775.83,61095,9.0,71668.8,-4.89,-31.17,-31.67,0,*59
1487930777.09,61096,9.0,71678.3,-4.89,-32.45,-32.91,0,*54
1487930778.35,61097,9.0,71684.0,-4.89,-32.97,-33.37,0,*57
1487930779.61,61098,9.0,71670.5,-4.89,-31.95,-32.57,0,*5E
1487930780.9,61099,9.0,71670.5,-4.93,-32.79,-33.27,0,*53
1487930782.13,61100,9.0,71658.8,-4.91,-32.35,-32.85,0,*51
1487930783.42,61101,9.0,71680.8,-4.93,-32.85,-33.27,0,*50
1487930784.65,61102,9.0,71644.5,-4.93,-32.35,-32.69,0,*53
1487930785.93,61103,9.0,71652.3,-4.93,-31.91,-32.29,0,*5B
1487930787.2,61104,9.0,71616.5,-4.93,-32.01,-32.45,0,*5C
1487930788.44,61105,9.0,71602.3,-4.93,-32.01,-32.35,0,*5A
1487930789.67,61106,9.0,71614.0,-4.95,-31.79,-31.95,0,*5A
1487930790.9,61107,9.0,71444.0,-4.93,-31.79,-32.13,0,*50
1487930792.14,61108,8.94,71554.3,-4.95,-32.51,-32.85,0,*5F
1487930793.4,61109,8.94,71592.0,-4.95,-32.75,-33.09,0,*5D
1487930794.63,61110,9.0,71628.0,-4.95,-32.39,-32.75,0,*57
1487930795.87,61111,9.0,71578.5,-4.95,-30.95,-31.17,0,*55
1487930797.12,61112,9.0,71656.3,-4.95,-30.73,-30.95,0,*55
1487930798.33,61113,9.0,71658.5,-4.95,-29.95,-29.95,0,*5C
1487930799.59,61114,9.0,71646.3,-4.91,-30.05,-30.17,0,*5C
1487930800.82,61115,9.0,71564.8,-4.89,-30.33,-30.33,0,*57
1487930802.06,61116,9.0,71564.5,-4.89,-30.67,-30.83,0,*5E
1487930803.31,61117,9.0,71590.5,-4.87,-30.77,-30.83,0,*50
1487930804.55,61118,9.0,71676.8,-4.87,-30.77,-30.83,0,*5F
1487930805.81,61119,9.0,71728.8,-4.87,-30.61,-30.77,0,*52
1487930807.01,61120,9.0,71710.0,-4.83,-30.23,-30.27,0,*5F
1487930808.27,61121,9.0,71736.0,-4.85,-30.05,-30.23,0,*58
1487930809.53,61122,9.0,71694.8,-4.83,-30.61,-30.77,0,*5E
1487930810.8,61123,9.0,71726.5,-4.83,-30.61,-30.73,0,*5B
1487930812.04,61124,9.0,71742.0,-4.79,-30.55,-30.55,0,*5A
1487930813.3,61125,9.0,71712.8,-4.81,-30.51,-30.67,0,*59
1487930814.57,61126,9.0,71664.8,-4.81,-30.67,-30.73,0,*5A
1487930815.81,61127,9.0,71698.5,-4.79,-30.67,-30.89,0,*59
1487930817.04,61128,9.0,71694.3,-4.79,-30.67,-30.73,0,*53
1487930818.27,61129,9.0,71690.8,-4.79,-30.95,-31.05,0,*5F
1487930819.53,61130,9.0,71692.0,-4.79,-31.57,-31.57,0,*5F
1487930820.8,61131,9.0,71710.0,-4.77,-31.51,-31.57,0,*56
1487930822.04,61132,9.0,71712.3,-4.79,-31.45,-31.39,0,*56
1487930823.25,61133,9.0,71668.8,-4.79,-31.29,-31.29,0,*5C
1487930824.45,61134,9.0,71690.0,-4.79,-31.29,-31.29,0,*5B
1487930825.68,61135,9.0,71658.8,-4.79,-31.11,-31.05,0,*5F
1487930826.94,61136,9.0,71658.0,-4.79,-31.39,-31.39,0,*59
1487930828.2,61137,9.0,71694.3,-4.79,-30.73,-30.89,0,*5D
1487930829.46,61138,9.0,71724.5,-4.79,-29.89,-30.01,0,*5F
1487930830.69,61139,9.0,71734.8,-4.73,-29.95,-30.11,0,*58
1487930831.92,61140,9.0,71718.8,-4.71,-29.57,-29.39,0,*58
1487930833.12,61141,9.0,71728.0,-4.71,-30.11,-30.23,0,*50
1487930834.34,61142,9.0,71694.8,-4.71,-30.55,-30.67,0,*53
1487930835.57,61143,9.0,71708.5,-4.71,-30.83,-30.95,0,*54
1487930836.82,61144,9.0,71688.3,-4.69,-31.05,-31.11,0,*58
1487930838.02,61145,9.0,71742.5,-4.71,-31.17,-31.33,0,*53
1487930839.25,61146,9.0,71712.0,-4.69,-31.29,-31.45,0,*55
1487930840.46,61147,8.94,71730.5,-4.71,-31.29,-31.45,0,*5D
1487930841.66,61148,9.0,71704.3,-4.71,-31.17,-31.17,0,*58
1487930842.89,61149,9.0,71718.0,-4.71,-30.95,-31.01,0,*55
1487930844.18,61150,9.0,71716.3,-4.69,-30.73,-30.77,0,*5C
1487930845.44,61151,8.94,71690.0,-4.69,-31.29,-31.23,0,*53
1487930846.64,61152,9.0,71654.3,-4.71,-31.29,-31.45,0,*59
1487930847.93,61153,9.0,71692.8,-4.69,-31.23,-31.39,0,*50
1487930849.18,61154,9.0,71726.3,-4.71,-31.61,-31.91,0,*5A
1487930850.41,61155,8.94,71720.5,-4.71,-31.61,-32.01,0,*51
1487930851.64,61156,9.0,71736.3,-4.69,-31.45,-31.79,0,*51
1487930852.88,61157,9.0,71740.8,-4.71,-31.51,-31.91,0,*5A
1487930854.11,61158,9.0,71724.8,-4.71,-30.95,-31.29,0,*5F
1487930855.34,61159,9.0,71714.8,-4.71,-31.29,-31.51,0,*57
1487930856.54,61160,9.0,71704.8,-4.71,-32.01,-32.35,0,*55
1487930857.77,61161,9.0,71600.0,-4.71,-32.07,-32.35,0,*52
1487930859.0,61162,9.0,71660.8,-4.71,-32.19,-32.35,0,*5E
1487930860.25,61163,9.0,71664.3,-4.73,-31.91,-32.35,0,*5E
1487930861.54,61164,8.94,71686.8,-4.77,-31.73,-32.07,0,*50
1487930862.82,61165,9.0,71710.5,-4.73,-30.77,-30.95,0,*59
1487930864.08,61166,9.0,71750.3,-4.73,-30.77,-31.01,0,*56
1487930865.31,61167,9.0,71722.3,-4.73,-30.83,-31.17,0,*5B
1487930866.54,61168,9.0,71742.5,-4.71,-30.77,-31.01,0,*5A
1487930867.78,61169,9.0,71754.5,-4.73,-31.17,-31.45,0,*5E
1487930869.04,61170,9.0,71762.3,-4.73,-31.11,-31.29,0,*5A
1487930870.27,61171,9.0,71734.0,-4.71,-30.77,-31.17,0,*55
1487930871.52,61172,9.0,71714.0,-4.71,-30.77,-31.11,0,*50
1487930872.75,61173,9.0,71734.8,-4.71,-31.29,-31.61,0,*5C
1487930873.95,61174,9.0,71712.5,-4.71,-29.95,-30.23,0,*52
1487930875.18,61175,9.0,71714.3,-4.71,-30.45,-30.61,0,*50
1487930876.38,61176,9.0,71714.3,-4.71,-30.45,-30.83,0,*5F
1487930877.66,61177,9.0,71704.3,-4.69,-30.77,-30.95,0,*51
1487930878.94,61178,9.0,71712.8,-4.69,-30.55,-30.89,0,*53
1487930880.22,61179,9.0,71700.0,-4.69,-31.57,-31.61,0,*56
1487930881.44,61180,9.0,71698.8,-4.71,-30.61,-31.01,0,*5B
1487930882.64,61181,9.0,71712.8,-4.71,-31.33,-31.67,0,*5C
1487930883.88,61182,9.0,71714.5,-4.71,-30.39,-30.55,0,*54
1487930885.16,61183,9.0,71718.0,-4.69,-30.01,-30.17,0,*51
1487930886.43,61184,9.0,71714.3,-4.67,-29.57,-29.89,0,*5C
1487930887.71,61185,9.0,71720.3,-4.67,-30.89,-31.11,0,*5E
1487930888.96,61186,9.0,71696.3,-4.67,-31.29,-31.57,0,*54
1487930890.25,61187,8.94,71686.5,-4.67,-30.39,-30.77,0,*56
1487930891.48,61188,9.0,71612.8,-4.65,-31.61,-32.23,0,*54
1487930892.74,61189,9.0,71712.3,-4.67,-32.45,-32.91,0,*5B
1487930893.99,61190,9.0,71722.5,-4.67,-32.35,-32.85,0,*51
1487930895.27,61191,9.0,71732.5,-4.69,-32.63,-33.09,0,*58
1487930896.5,61192,9.0,71724.0,-4.71,-32.69,-33.09,0,*58
1487930897.7,61193,9.0,71730.0,-4.71,-32.23,-32.69,0,*50
1487930898.94,61194,9.0,71736.5,-4.71,-32.07,-32.39,0,*54
1487930900.2,61195,9.0,71762.8,-4.73,-32.19,-32.69,0,*5D
1487930901.46,61196,9.0,71746.3,-4.77,-32.39,-32.85,0,*5A
1487930902.68,61197,8.94,71754.3,-4.77,-32.13,-32.57,0,*5C
1487930903.94,61198,9.0,71706.5,-4.77,-32.63,-33.03,0,*54
1487930905.22,61199,9.0,71652.8,-4.77,-32.63,-32.97,0,*59
1487930906.48,61200,9.0,71666.3,-4.79,-32.79,-33.09,0,*59
1487930907.74,61201,9.0,71660.8,-4.79,-32.85,-33.09,0,*5B
1487930908.97,61202,9.0,71666.3,-4.83,-32.69,-32.97,0,*59
1487930910.23,61203,9.0,71688.3,-4.83,-32.75,-33.09,0,*53